| time (UTC) | temp C | wind direction | speed KPH | gust KPH | rain 1hr cm | rain 24hr cm | rain mn cm | humidity % | barometer mb |
| 20260510195709 | 40 | 172 | 6.4 | 6.4 | 0.00 | 0.00 | 0.00 | 8 | 1013.8 |
| 20260510195206 | 40 | 122 | 4.8 | 8.0 | 0.00 | 0.00 | 0.00 | 8 | 1013.7 |
| 20260510194705 | 40 | 170 | 6.4 | 12.9 | 0.00 | 0.00 | 0.00 | 8 | 1013.9 |
| 20260510194202 | 40 | 98 | 3.2 | 6.4 | 0.00 | 0.00 | 0.00 | 8 | 1013.9 |
| 20260510193657 | 39 | 241 | 12.9 | 22.5 | 0.00 | 0.00 | 0.00 | 8 | 1013.8 |
| 20260510193152 | 39 | 119 | 4.8 | 9.7 | 0.00 | 0.00 | 0.00 | 9 | 1013.9 |
| 20260510192648 | 40 | 207 | 3.2 | 9.7 | 0.00 | 0.00 | 0.00 | 8 | 1014.0 |
| 20260510192143 | 40 | 237 | 4.8 | 8.0 | 0.00 | 0.00 | 0.00 | 8 | 1013.9 |
| 20260510191640 | 40 | 134 | 3.2 | 4.8 | 0.00 | 0.00 | 0.00 | 8 | 1014.1 |
| 20260510191137 | 39 | 137 | 3.2 | 6.4 | 0.00 | 0.00 | 0.00 | 8 | 1014.0 |
| 20260510190634 | 39 | 103 | 3.2 | 8.0 | 0.00 | 0.00 | 0.00 | 9 | 1014.1 |
| 20260510190132 | 38 | 225 | 1.6 | 6.4 | 0.00 | 0.00 | 0.00 | 9 | 1014.0 |
| 20260510185628 | 40 | 186 | 6.4 | 11.3 | 0.00 | 0.00 | 0.00 | 9 | 1014.2 |
| 20260510185126 | 38 | 97 | 4.8 | 6.4 | 0.00 | 0.00 | 0.00 | 8 | 1014.3 |
| 20260510184623 | 38 | 11 | 0.0 | 6.4 | 0.00 | 0.00 | 0.00 | 9 | 1014.2 |
| 20260510184119 | 38 | 104 | 6.4 | 11.3 | 0.00 | 0.00 | 0.00 | 9 | 1014.2 |
| 20260510183614 | 38 | 132 | 3.2 | 9.7 | 0.00 | 0.00 | 0.00 | 9 | 1014.4 |
| 20260510183109 | 38 | 230 | 3.2 | 6.4 | 0.00 | 0.00 | 0.00 | 9 | 1014.3 |
| 20260510182606 | 39 | 124 | 8.0 | 8.0 | 0.00 | 0.00 | 0.00 | 8 | 1014.4 |
| 20260510182102 | 38 | 135 | 0.0 | 4.8 | 0.00 | 0.00 | 0.00 | 8 | 1014.2 |
| 20260510181559 | 37 | 276 | 0.0 | 6.4 | 0.00 | 0.00 | 0.00 | 8 | 1014.2 |
| 20260510181055 | 38 | 78 | 1.6 | 4.8 | 0.00 | 0.00 | 0.00 | 8 | 1014.3 |
| 20260510180552 | 37 | 106 | 1.6 | 9.7 | 0.00 | 0.00 | 0.00 | 8 | 1014.3 |
| 20260510180050 | 38 | 97 | 4.8 | 8.0 | 0.00 | 0.00 | 0.00 | 8 | 1014.2 |
| 20260510175544 | 38 | 118 | 6.4 | 8.0 | 0.00 | 0.00 | 0.00 | 8 | 1014.6 |
| 20260510175041 | 38 | 168 | 0.0 | 4.8 | 0.00 | 0.00 | 0.00 | 8 | 1014.5 |
| 20260510174539 | 37 | 102 | 6.4 | 9.7 | 0.00 | 0.00 | 0.00 | 8 | 1014.5 |
| 20260510174036 | 37 | 108 | 6.4 | 8.0 | 0.00 | 0.00 | 0.00 | 8 | 1014.3 |
| 20260510173525 | 37 | 233 | 3.2 | 6.4 | 0.00 | 0.00 | 0.00 | 8 | 1014.2 |
| 20260510173023 | 37 | 297 | 1.6 | 4.8 | 0.00 | 0.00 | 0.00 | 10 | 1014.2 |
| 20260510172519 | 37 | 104 | 6.4 | 6.4 | 0.00 | 0.00 | 0.00 | 9 | 1014.2 |
| 20260510172015 | 37 | 232 | 1.6 | 4.8 | 0.00 | 0.00 | 0.00 | 9 | 1014.1 |
| 20260510171512 | 36 | 64 | 1.6 | 6.4 | 0.00 | 0.00 | 0.00 | 9 | 1014.2 |
| 20260510171008 | 36 | 65 | 1.6 | 3.2 | 0.00 | 0.00 | 0.00 | 11 | 1014.2 |
| 20260510170505 | 36 | 86 | 4.8 | 6.4 | 0.00 | 0.00 | 0.00 | 10 | 1014.3 |
| 20260510170001 | 36 | 140 | 3.2 | 6.4 | 0.00 | 0.00 | 0.00 | 9 | 1014.0 |
| 20260510165457 | 36 | 79 | 0.0 | 6.4 | 0.00 | 0.00 | 0.00 | 10 | 1014.0 |
| 20260510164954 | 35 | 99 | 1.6 | 6.4 | 0.00 | 0.00 | 0.00 | 11 | 1014.2 |
| 20260510164450 | 35 | 100 | 4.8 | 9.7 | 0.00 | 0.00 | 0.00 | 11 | 1013.9 |
| 20260510163945 | 35 | 76 | 3.2 | 4.8 | 0.00 | 0.00 | 0.00 | 12 | 1014.1 |
| 20260510163437 | 35 | 86 | 6.4 | 6.4 | 0.00 | 0.00 | 0.00 | 11 | 1014.0 |
| 20260510162937 | 35 | 67 | 1.6 | 3.2 | 0.00 | 0.00 | 0.00 | 12 | 1013.9 |
| 20260510162429 | 35 | 354 | 0.0 | 3.2 | 0.00 | 0.00 | 0.00 | 11 | 1013.9 |
| 20260510161925 | 35 | 86 | 3.2 | 6.4 | 0.00 | 0.00 | 0.00 | 12 | 1013.7 |
| 20260510161420 | 34 | 81 | 3.2 | 3.2 | 0.00 | 0.00 | 0.00 | 12 | 1013.8 |
| 20260510160918 | 33 | 11 | 3.2 | 4.8 | 0.00 | 0.00 | 0.00 | 14 | 1013.8 |
| 20260510160415 | 33 | 111 | 0.0 | 4.8 | 0.00 | 0.00 | 0.00 | 13 | 1013.7 |
| 20260510155913 | 33 | 117 | 1.6 | 3.2 | 0.00 | 0.00 | 0.00 | 14 | 1013.6 |
| 20260510155410 | 33 | 100 | 4.8 | 6.4 | 0.00 | 0.00 | 0.00 | 13 | 1013.4 |
| 20260510154907 | 33 | 310 | 0.0 | 3.2 | 0.00 | 0.00 | 0.00 | 14 | 1013.6 |
| 20260510154404 | 33 | 62 | 1.6 | 3.2 | 0.00 | 0.00 | 0.00 | 14 | 1013.5 |
| 20260510153902 | 33 | 63 | 1.6 | 3.2 | 0.00 | 0.00 | 0.00 | 15 | 1013.3 |
| 20260510153359 | 33 | 60 | 3.2 | 3.2 | 0.00 | 0.00 | 0.00 | 15 | 1013.4 |
| 20260510152856 | 33 | 59 | 0.0 | 3.2 | 0.00 | 0.00 | 0.00 | 15 | 1013.4 |
| 20260510152353 | 33 | 307 | 3.2 | 3.2 | 0.00 | 0.00 | 0.00 | 16 | 1013.3 |
| 20260510151849 | 32 | 22 | 1.6 | 3.2 | 0.00 | 0.00 | 0.00 | 16 | 1013.3 |
| 20260510151347 | 32 | 353 | 1.6 | 3.2 | 0.00 | 0.00 | 0.00 | 17 | 1013.5 |
| 20260510150843 | 32 | 315 | 0.0 | 3.2 | 0.00 | 0.00 | 0.00 | 16 | 1013.4 |
| 20260510150339 | 31 | 322 | 0.0 | 3.2 | 0.00 | 0.00 | 0.00 | 18 | 1013.4 |
| 20260510145835 | 31 | 21 | 0.0 | 3.2 | 0.00 | 0.00 | 0.00 | 18 | 1013.4 |
| 20260510145331 | 30 | 279 | 0.0 | 3.2 | 0.00 | 0.00 | 0.00 | 18 | 1013.3 |
| 20260510144828 | 28 | 43 | 1.6 | 3.2 | 0.00 | 0.00 | 0.00 | 20 | 1013.3 |
| 20260510144325 | 28 | 311 | 1.6 | 3.2 | 0.00 | 0.00 | 0.00 | 23 | 1013.3 |
| 20260510143825 | 29 | 303 | 0.0 | 1.6 | 0.00 | 0.00 | 0.00 | 21 | 1013.3 |
| 20260510143321 | 27 | 311 | 0.0 | 1.6 | 0.00 | 0.00 | 0.00 | 21 | 1013.2 |
| 20260510142818 | 26 | 271 | 0.0 | 1.6 | 0.00 | 0.00 | 0.00 | 22 | 1013.2 |
| 20260510142315 | 26 | 326 | 3.2 | 3.2 | 0.00 | 0.00 | 0.00 | 23 | 1013.1 |
| 20260510141812 | 25 | 340 | 3.2 | 4.8 | 0.00 | 0.00 | 0.00 | 24 | 1013.1 |
| 20260510141309 | 26 | 6 | 3.2 | 3.2 | 0.00 | 0.00 | 0.00 | 21 | 1012.9 |
| 20260510140807 | 26 | 13 | 3.2 | 4.8 | 0.00 | 0.00 | 0.00 | 18 | 1012.9 |
| 20260510140302 | 27 | 339 | 1.6 | 1.6 | 0.00 | 0.00 | 0.00 | 16 | 1012.8 |
| 20260510135756 | 27 | 96 | 1.6 | 3.2 | 0.00 | 0.00 | 0.00 | 15 | 1012.6 |
| 20260510135252 | 26 | 29 | 1.6 | 3.2 | 0.00 | 0.00 | 0.00 | 15 | 1012.8 |
| 20260510134750 | 25 | 87 | 1.6 | 3.2 | 0.00 | 0.00 | 0.00 | 15 | 1012.5 |
| 20260510134247 | 25 | 333 | 0.0 | 1.6 | 0.00 | 0.00 | 0.00 | 15 | 1012.5 |
| 20260510133742 | 23 | 309 | 1.6 | 3.2 | 0.00 | 0.00 | 0.00 | 15 | 1012.7 |
| 20260510133238 | 23 | 164 | 3.2 | 3.2 | 0.00 | 0.00 | 0.00 | 15 | 1012.5 |
| 20260510132734 | 22 | 143 | 1.6 | 3.2 | 0.00 | 0.00 | 0.00 | 16 | 1012.7 |
| 20260510132232 | 21 | 212 | 1.6 | 6.4 | 0.00 | 0.00 | 0.00 | 16 | 1012.5 |
| 20260510131728 | 20 | 228 | 1.6 | 3.2 | 0.00 | 0.00 | 0.00 | 18 | 1012.5 |
| 20260510131227 | 20 | 173 | 0.0 | 3.2 | 0.00 | 0.00 | 0.00 | 19 | 1012.4 |
| 20260510130723 | 20 | 209 | 1.6 | 3.2 | 0.00 | 0.00 | 0.00 | 19 | 1012.3 |
| 20260510130220 | 20 | 221 | 1.6 | 3.2 | 0.00 | 0.00 | 0.00 | 19 | 1012.3 |
| 20260510125716 | 20 | 245 | 0.0 | 4.8 | 0.00 | 0.00 | 0.00 | 21 | 1012.1 |
| 20260510125212 | 19 | 264 | 1.6 | 4.8 | 0.00 | 0.00 | 0.00 | 21 | 1012.5 |
| 20260510124709 | 19 | 269 | 1.6 | 3.2 | 0.00 | 0.00 | 0.00 | 21 | 1012.3 |
| 20260510124207 | 18 | 217 | 1.6 | 4.8 | 0.00 | 0.00 | 0.00 | 20 | 1012.2 |
| 20260510123702 | 19 | 204 | 0.0 | 4.8 | 0.00 | 0.00 | 0.00 | 20 | 1012.2 |
| 20260510123158 | 20 | 220 | 1.6 | 3.2 | 0.00 | 0.00 | 0.00 | 19 | 1012.2 |
| 20260510122655 | 20 | 233 | 1.6 | 3.2 | 0.00 | 0.00 | 0.00 | 20 | 1012.1 |
| 20260510122151 | 20 | 214 | 0.0 | 3.2 | 0.00 | 0.00 | 0.00 | 20 | 1012.1 |
| 20260510121647 | 20 | 257 | 1.6 | 3.2 | 0.00 | 0.00 | 0.00 | 20 | 1012.1 |
| 20260510121144 | 20 | 234 | 0.0 | 3.2 | 0.00 | 0.00 | 0.00 | 20 | 1012.1 |
| 20260510120642 | 20 | 209 | 1.6 | 3.2 | 0.00 | 0.00 | 0.00 | 20 | 1012.2 |
| 20260510120137 | 21 | 119 | 0.0 | 3.2 | 0.00 | 0.00 | 0.00 | 19 | 1012.3 |
| 20260510115633 | 20 | 249 | 0.0 | 3.2 | 0.00 | 0.00 | 0.00 | 19 | 1012.2 |
| 20260510115132 | 20 | 269 | 0.0 | 3.2 | 0.00 | 0.00 | 0.00 | 20 | 1012.3 |
| 20260510114627 | 19 | 267 | 1.6 | 3.2 | 0.00 | 0.00 | 0.00 | 21 | 1012.3 |
| 20260510114124 | 20 | 216 | 3.2 | 3.2 | 0.00 | 0.00 | 0.00 | 21 | 1012.1 |
| 20260510113619 | 20 | 249 | 0.0 | 1.6 | 0.00 | 0.00 | 0.00 | 24 | 1012.0 |
| 20260510113116 | 20 | 162 | 0.0 | 3.2 | 0.00 | 0.00 | 0.00 | 24 | 1012.2 |
| 20260510112613 | 19 | 248 | 1.6 | 3.2 | 0.00 | 0.00 | 0.00 | 26 | 1012.1 |
| 20260510112109 | 20 | 200 | 1.6 | 3.2 | 0.00 | 0.00 | 0.00 | 26 | 1012.0 |
| 20260510111606 | 20 | 194 | 0.0 | 3.2 | 0.00 | 0.00 | 0.00 | 26 | 1012.1 |
| 20260510111102 | 20 | 190 | 0.0 | 3.2 | 0.00 | 0.00 | 0.00 | 26 | 1012.0 |
| 20260510110558 | 20 | 249 | 0.0 | 1.6 | 0.00 | 0.00 | 0.00 | 27 | 1012.0 |
| 20260510110055 | 20 | 18 | 3.2 | 4.8 | 0.00 | 0.00 | 0.00 | 28 | 1012.2 |
| 20260510105550 | 21 | 186 | 0.0 | 3.2 | 0.00 | 0.00 | 0.00 | 27 | 1012.0 |
| 20260510105039 | 20 | 255 | 3.2 | 3.2 | 0.00 | 0.00 | 0.00 | 26 | 1012.1 |
| 20260510104537 | 20 | 235 | 3.2 | 4.8 | 0.00 | 0.00 | 0.00 | 26 | 1012.1 |
| 20260510104033 | 20 | 233 | 1.6 | 3.2 | 0.00 | 0.00 | 0.00 | 26 | 1011.8 |
| 20260510103531 | 20 | 268 | 3.2 | 3.2 | 0.00 | 0.00 | 0.00 | 25 | 1011.8 |
| 20260510103026 | 21 | 251 | 1.6 | 1.6 | 0.00 | 0.00 | 0.00 | 25 | 1011.7 |
| 20260510102522 | 20 | 269 | 0.0 | 3.2 | 0.00 | 0.00 | 0.00 | 26 | 1011.8 |
| 20260510102019 | 20 | 242 | 1.6 | 3.2 | 0.00 | 0.00 | 0.00 | 25 | 1012.0 |
| 20260510101516 | 20 | 214 | 0.0 | 3.2 | 0.00 | 0.00 | 0.00 | 25 | 1011.6 |
| 20260510101015 | 20 | 225 | 3.2 | 3.2 | 0.00 | 0.00 | 0.00 | 25 | 1011.6 |
| 20260510100510 | 20 | 300 | 1.6 | 3.2 | 0.00 | 0.00 | 0.00 | 26 | 1012.0 |
| 20260510100008 | 20 | 230 | 0.0 | 1.6 | 0.00 | 0.00 | 0.00 | 27 | 1011.6 |
| 20260510095503 | 20 | 228 | 0.0 | 3.2 | 0.00 | 0.00 | 0.00 | 30 | 1011.5 |
| 20260510095002 | 20 | 191 | 0.0 | 1.6 | 0.00 | 0.00 | 0.00 | 29 | 1011.7 |
| 20260510094457 | 20 | 184 | 0.0 | 3.2 | 0.00 | 0.00 | 0.00 | 30 | 1011.7 |
| 20260510093953 | 20 | 200 | 1.6 | 1.6 | 0.00 | 0.00 | 0.00 | 31 | 1011.6 |
| 20260510093449 | 20 | 152 | 0.0 | 3.2 | 0.00 | 0.00 | 0.00 | 27 | 1011.7 |
| 20260510092945 | 21 | 253 | 1.6 | 3.2 | 0.00 | 0.00 | 0.00 | 26 | 1011.7 |
| 20260510092442 | 21 | 246 | 0.0 | 1.6 | 0.00 | 0.00 | 0.00 | 27 | 1011.7 |
| 20260510091936 | 20 | 309 | 0.0 | 0.0 | 0.00 | 0.00 | 0.00 | 26 | 1011.8 |
| 20260510091434 | 21 | 255 | 0.0 | 3.2 | 0.00 | 0.00 | 0.00 | 25 | 1011.8 |
| 20260510090930 | 20 | 237 | 3.2 | 4.8 | 0.00 | 0.00 | 0.00 | 27 | 1011.7 |
| 20260510090427 | 21 | 221 | 1.6 | 3.2 | 0.00 | 0.00 | 0.00 | 27 | 1011.8 |
| 20260510085923 | 21 | 279 | 3.2 | 3.2 | 0.00 | 0.00 | 0.00 | 26 | 1011.8 |
| 20260510085418 | 21 | 261 | 0.0 | 1.6 | 0.00 | 0.00 | 0.00 | 25 | 1011.8 |
| 20260510084913 | 21 | 264 | 3.2 | 3.2 | 0.00 | 0.00 | 0.00 | 25 | 1011.7 |
| 20260510084411 | 21 | 256 | 1.6 | 3.2 | 0.00 | 0.00 | 0.00 | 27 | 1011.8 |
| 20260510083908 | 21 | 294 | 0.0 | 0.0 | 0.00 | 0.00 | 0.00 | 28 | 1011.6 |
| 20260510083404 | 21 | 231 | 1.6 | 1.6 | 0.00 | 0.00 | 0.00 | 28 | 1011.7 |
| 20260510082859 | 21 | 252 | 0.0 | 3.2 | 0.00 | 0.00 | 0.00 | 30 | 1011.8 |
| 20260510082357 | 22 | 293 | 0.0 | 1.6 | 0.00 | 0.00 | 0.00 | 31 | 1012.0 |
| 20260510081856 | 22 | 266 | 0.0 | 1.6 | 0.00 | 0.00 | 0.00 | 30 | 1011.8 |
| 20260510081352 | 22 | 255 | 0.0 | 3.2 | 0.00 | 0.00 | 0.00 | 30 | 1012.0 |
| 20260510080849 | 22 | 238 | 1.6 | 3.2 | 0.00 | 0.00 | 0.00 | 30 | 1012.2 |
| 20260510080348 | 23 | 217 | 1.6 | 3.2 | 0.00 | 0.00 | 0.00 | 30 | 1012.0 |
| 20260510075845 | 23 | 243 | 3.2 | 3.2 | 0.00 | 0.00 | 0.00 | 29 | 1012.1 |
| 20260510075343 | 22 | 263 | 3.2 | 3.2 | 0.00 | 0.00 | 0.00 | 31 | 1012.1 |
| 20260510074839 | 22 | 233 | 1.6 | 4.8 | 0.00 | 0.00 | 0.00 | 30 | 1012.2 |
| 20260510074337 | 22 | 232 | 3.2 | 4.8 | 0.00 | 0.00 | 0.00 | 32 | 1012.3 |
| 20260510073833 | 23 | 217 | 3.2 | 3.2 | 0.00 | 0.00 | 0.00 | 31 | 1012.2 |
| 20260510073329 | 23 | 249 | 0.0 | 3.2 | 0.00 | 0.00 | 0.00 | 30 | 1012.3 |
| 20260510072825 | 23 | 259 | 0.0 | 3.2 | 0.00 | 0.00 | 0.00 | 32 | 1012.5 |
| 20260510072322 | 22 | 273 | 4.8 | 4.8 | 0.00 | 0.00 | 0.00 | 32 | 1012.3 |
| 20260510071818 | 22 | 258 | 0.0 | 3.2 | 0.00 | 0.00 | 0.00 | 31 | 1012.4 |
| 20260510071309 | 23 | 242 | 0.0 | 1.6 | 0.00 | 0.00 | 0.00 | 32 | 1012.4 |
| 20260510070808 | 23 | 149 | 1.6 | 1.6 | 0.00 | 0.00 | 0.00 | 32 | 1012.4 |
| 20260510070304 | 23 | 212 | 0.0 | 0.0 | 0.00 | 0.00 | 0.00 | 32 | 1012.2 |
| 20260510065804 | 23 | 239 | 0.0 | 1.6 | 0.00 | 0.00 | 0.00 | 31 | 1012.3 |
| 20260510065301 | 23 | 89 | 0.0 | 1.6 | 0.00 | 0.00 | 0.00 | 31 | 1012.4 |
| 20260510064758 | 23 | 345 | 1.6 | 1.6 | 0.00 | 0.00 | 0.00 | 30 | 1012.1 |
| 20260510064256 | 23 | 266 | 1.6 | 3.2 | 0.00 | 0.00 | 0.00 | 29 | 1012.2 |
| 20260510063751 | 23 | 232 | 0.0 | 3.2 | 0.00 | 0.00 | 0.00 | 29 | 1012.3 |
| 20260510063248 | 23 | 283 | 0.0 | 3.2 | 0.00 | 0.00 | 0.00 | 29 | 1012.1 |
| 20260510062744 | 23 | 191 | 0.0 | 3.2 | 0.00 | 0.00 | 0.00 | 30 | 1012.2 |
| 20260510062240 | 23 | 254 | 0.0 | 3.2 | 0.00 | 0.00 | 0.00 | 29 | 1012.3 |
| 20260510061736 | 24 | 258 | 3.2 | 3.2 | 0.00 | 0.00 | 0.00 | 28 | 1012.3 |
| 20260510061233 | 25 | 255 | 0.0 | 3.2 | 0.00 | 0.00 | 0.00 | 28 | 1012.3 |
| 20260510060729 | 25 | 219 | 1.6 | 1.6 | 0.00 | 0.00 | 0.00 | 27 | 1012.4 |
| 20260510060226 | 25 | 29 | 0.0 | 1.6 | 0.00 | 0.00 | 0.00 | 27 | 1012.4 |
| 20260510055723 | 26 | 341 | 1.6 | 3.2 | 0.00 | 0.00 | 0.00 | 27 | 1012.3 |
| 20260510055221 | 26 | 227 | 1.6 | 3.2 | 0.00 | 0.00 | 0.00 | 27 | 1012.1 |
| 20260510054721 | 26 | 192 | 1.6 | 3.2 | 0.00 | 0.00 | 0.00 | 26 | 1012.2 |
| 20260510054217 | 26 | 227 | 0.0 | 3.2 | 0.00 | 0.00 | 0.00 | 27 | 1012.2 |
| 20260510053711 | 27 | 102 | 1.6 | 4.8 | 0.00 | 0.00 | 0.00 | 27 | 1012.0 |
| 20260510053208 | 26 | 205 | 0.0 | 3.2 | 0.00 | 0.00 | 0.00 | 28 | 1012.1 |
| 20260510052704 | 26 | 212 | 3.2 | 3.2 | 0.00 | 0.00 | 0.00 | 29 | 1012.0 |
| 20260510052200 | 26 | 182 | 0.0 | 3.2 | 0.00 | 0.00 | 0.00 | 28 | 1012.1 |
| 20260510051656 | 27 | 205 | 0.0 | 3.2 | 0.00 | 0.00 | 0.00 | 28 | 1012.1 |
| 20260510051153 | 28 | 76 | 1.6 | 4.8 | 0.00 | 0.00 | 0.00 | 27 | 1012.1 |
| 20260510050650 | 28 | 126 | 3.2 | 3.2 | 0.00 | 0.00 | 0.00 | 26 | 1012.0 |
| 20260510050147 | 28 | 118 | 1.6 | 1.6 | 0.00 | 0.00 | 0.00 | 26 | 1011.8 |
| 20260510045643 | 28 | 231 | 1.6 | 4.8 | 0.00 | 0.00 | 0.00 | 25 | 1011.8 |
| 20260510045140 | 29 | 263 | 0.0 | 4.8 | 0.00 | 0.00 | 0.00 | 24 | 1011.8 |
| 20260510044636 | 30 | 192 | 1.6 | 3.2 | 0.00 | 0.00 | 0.00 | 23 | 1011.8 |
| 20260510044134 | 30 | 250 | 1.6 | 3.2 | 0.00 | 0.00 | 0.00 | 22 | 1011.8 |
| 20260510043630 | 31 | 217 | 0.0 | 6.4 | 0.00 | 0.00 | 0.00 | 20 | 1011.8 |
| 20260510043126 | 31 | 308 | 0.0 | 6.4 | 0.00 | 0.00 | 0.00 | 19 | 1011.7 |
| 20260510042624 | 31 | 99 | 9.7 | 17.7 | 0.00 | 0.00 | 0.00 | 17 | 1011.5 |
| 20260510042119 | 31 | 116 | 1.6 | 8.0 | 0.00 | 0.00 | 0.00 | 21 | 1011.5 |
| 20260510041617 | 31 | 89 | 3.2 | 6.4 | 0.00 | 0.00 | 0.00 | 20 | 1011.7 |
| 20260510041114 | 31 | 244 | 0.0 | 3.2 | 0.00 | 0.00 | 0.00 | 20 | 1011.5 |
| 20260510040612 | 32 | 228 | 4.8 | 6.4 | 0.00 | 0.00 | 0.00 | 19 | 1011.5 |
| 20260510040108 | 32 | 313 | 0.0 | 9.7 | 0.00 | 0.00 | 0.00 | 18 | 1011.4 |
| 20260510035604 | 31 | 276 | 3.2 | 3.2 | 0.00 | 0.00 | 0.00 | 20 | 1011.4 |
| 20260510035103 | 31 | 65 | 1.6 | 4.8 | 0.00 | 0.00 | 0.00 | 20 | 1011.4 |
| 20260510034601 | 32 | 269 | 0.0 | 3.2 | 0.00 | 0.00 | 0.00 | 20 | 1011.4 |
| 20260510034059 | 32 | 282 | 6.4 | 8.0 | 0.00 | 0.00 | 0.00 | 19 | 1011.3 |
| 20260510033554 | 32 | 135 | 0.0 | 3.2 | 0.00 | 0.00 | 0.00 | 19 | 1011.0 |
| 20260510033052 | 31 | 226 | 3.2 | 8.0 | 0.00 | 0.00 | 0.00 | 20 | 1011.0 |
| 20260510032549 | 31 | 253 | 4.8 | 6.4 | 0.00 | 0.00 | 0.00 | 20 | 1010.9 |
| 20260510032044 | 32 | 303 | 0.0 | 3.2 | 0.00 | 0.00 | 0.00 | 20 | 1010.8 |
| 20260510031544 | 32 | 357 | 3.2 | 6.4 | 0.00 | 0.00 | 0.00 | 19 | 1010.7 |
| 20260510031041 | 32 | 251 | 3.2 | 6.4 | 0.00 | 0.00 | 0.00 | 20 | 1010.4 |
| 20260510030536 | 32 | 129 | 3.2 | 4.8 | 0.00 | 0.00 | 0.00 | 18 | 1010.3 |
| 20260510030034 | 33 | 354 | 1.6 | 3.2 | 0.00 | 0.00 | 0.00 | 17 | 1010.3 |
| 20260510025531 | 33 | 12 | 3.2 | 6.4 | 0.00 | 0.00 | 0.00 | 16 | 1010.4 |
| 20260510025028 | 33 | 260 | 14.5 | 14.5 | 0.00 | 0.00 | 0.00 | 16 | 1010.2 |
| 20260510024525 | 33 | 242 | 12.9 | 19.3 | 0.00 | 0.00 | 0.00 | 17 | 1010.2 |
| 20260510024021 | 33 | 243 | 6.4 | 14.5 | 0.00 | 0.00 | 0.00 | 17 | 1010.0 |
| 20260510023517 | 34 | 263 | 8.0 | 17.7 | 0.00 | 0.00 | 0.00 | 17 | 1009.9 |
| 20260510023015 | 33 | 259 | 6.4 | 14.5 | 0.00 | 0.00 | 0.00 | 18 | 1010.1 |
| 20260510022514 | 33 | 274 | 9.7 | 20.9 | 0.00 | 0.00 | 0.00 | 17 | 1009.9 |
| 20260510022014 | 33 | 262 | 9.7 | 17.7 | 0.00 | 0.00 | 0.00 | 18 | 1010.0 |
| 20260510021511 | 33 | 257 | 14.5 | 24.1 | 0.00 | 0.00 | 0.00 | 18 | 1009.8 |
| 20260510021008 | 33 | 244 | 8.0 | 14.5 | 0.00 | 0.00 | 0.00 | 19 | 1009.9 |
| 20260510020502 | 34 | 237 | 8.0 | 20.9 | 0.00 | 0.00 | 0.00 | 19 | 1009.8 |
| 20260510015958 | 34 | 255 | 6.4 | 22.5 | 0.00 | 0.00 | 0.00 | 19 | 1009.9 |
| 20260510015454 | 34 | 249 | 19.3 | 20.9 | 0.00 | 0.00 | 0.00 | 19 | 1009.7 |
| 20260510014949 | 34 | 254 | 17.7 | 22.5 | 0.00 | 0.00 | 0.00 | 20 | 1009.9 |
| 20260510014447 | 34 | 248 | 14.5 | 20.9 | 0.00 | 0.00 | 0.00 | 20 | 1009.7 |
| 20260510013944 | 34 | 299 | 9.7 | 24.1 | 0.00 | 0.00 | 0.00 | 21 | 1009.8 |
| 20260510013438 | 35 | 277 | 17.7 | 27.4 | 0.00 | 0.00 | 0.00 | 19 | 1009.6 |
| 20260510012934 | 35 | 280 | 11.3 | 22.5 | 0.00 | 0.00 | 0.00 | 20 | 1009.6 |
| 20260510012429 | 35 | 255 | 12.9 | 27.4 | 0.00 | 0.00 | 0.00 | 20 | 1009.7 |
| 20260510011924 | 36 | 253 | 17.7 | 20.9 | 0.00 | 0.00 | 0.00 | 19 | 1009.8 |
| 20260510011419 | 36 | 271 | 8.0 | 24.1 | 0.00 | 0.00 | 0.00 | 18 | 1009.7 |
| 20260510010916 | 37 | 322 | 11.3 | 24.1 | 0.00 | 0.00 | 0.00 | 18 | 1009.8 |
| 20260510010413 | 37 | 291 | 4.8 | 14.5 | 0.00 | 0.00 | 0.00 | 17 | 1009.8 |
| 20260510005910 | 37 | 253 | 8.0 | 20.9 | 0.00 | 0.00 | 0.00 | 17 | 1009.7 |
| 20260510005406 | 37 | 301 | 17.7 | 19.3 | 0.00 | 0.00 | 0.00 | 17 | 1009.7 |
| 20260510004903 | 37 | 310 | 12.9 | 25.7 | 0.00 | 0.00 | 0.00 | 16 | 1009.4 |
| 20260510004401 | 38 | 301 | 14.5 | 19.3 | 0.00 | 0.00 | 0.00 | 15 | 1009.4 |
| 20260510003858 | 38 | 332 | 17.7 | 20.9 | 0.00 | 0.00 | 0.00 | 15 | 1009.6 |
| 20260510003355 | 38 | 304 | 14.5 | 17.7 | 0.00 | 0.00 | 0.00 | 15 | 1009.4 |
| 20260510002854 | 38 | 298 | 14.5 | 20.9 | 0.00 | 0.00 | 0.00 | 15 | 1009.5 |
| 20260510002352 | 38 | 259 | 12.9 | 17.7 | 0.00 | 0.00 | 0.00 | 15 | 1009.5 |
| 20260510001848 | 39 | 261 | 17.7 | 19.3 | 0.00 | 0.00 | 0.00 | 14 | 1009.6 |
| 20260510001346 | 38 | 314 | 6.4 | 17.7 | 0.00 | 0.00 | 0.00 | 14 | 1009.6 |
| 20260510000842 | 39 | 317 | 11.3 | 14.5 | 0.00 | 0.00 | 0.00 | 14 | 1009.6 |
| 20260510000341 | 39 | 309 | 9.7 | 14.5 | 0.00 | 0.00 | 0.00 | 14 | 1009.5 |
| 20260509235836 | 39 | 303 | 6.4 | 16.1 | 0.00 | 0.00 | 0.00 | 14 | 1009.7 |
| 20260509235332 | 39 | 312 | 9.7 | 19.3 | 0.00 | 0.00 | 0.00 | 14 | 1009.6 |
| 20260509234828 | 40 | 246 | 11.3 | 17.7 | 0.00 | 0.00 | 0.00 | 14 | 1009.8 |
| 20260509234325 | 40 | 261 | 11.3 | 16.1 | 0.00 | 0.00 | 0.00 | 11 | 1009.8 |
| 20260509233824 | 40 | 280 | 8.0 | 17.7 | 0.00 | 0.00 | 0.00 | 13 | 1009.8 |
| 20260509233321 | 40 | 255 | 12.9 | 22.5 | 0.00 | 0.00 | 0.00 | 12 | 1009.7 |
| 20260509232816 | 40 | 256 | 11.3 | 16.1 | 0.00 | 0.00 | 0.00 | 12 | 1009.6 |
| 20260509232314 | 40 | 264 | 9.7 | 24.1 | 0.00 | 0.00 | 0.00 | 12 | 1009.6 |
| 20260509231810 | 40 | 256 | 11.3 | 24.1 | 0.00 | 0.00 | 0.00 | 11 | 1009.7 |
| 20260509231307 | 40 | 249 | 14.5 | 25.7 | 0.00 | 0.00 | 0.00 | 11 | 1009.9 |
| 20260509230805 | 40 | 251 | 12.9 | 19.3 | 0.00 | 0.00 | 0.00 | 11 | 1009.9 |
| 20260509230302 | 40 | 251 | 9.7 | 20.9 | 0.00 | 0.00 | 0.00 | 10 | 1009.9 |
| 20260509225756 | 40 | 246 | 12.9 | 19.3 | 0.00 | 0.00 | 0.00 | 10 | 1009.9 |
| 20260509225253 | 40 | 247 | 17.7 | 24.1 | 0.00 | 0.00 | 0.00 | 11 | 1010.1 |
| 20260509224749 | 40 | 243 | 16.1 | 24.1 | 0.00 | 0.00 | 0.00 | 10 | 1010.1 |
| 20260509224247 | 40 | 245 | 16.1 | 22.5 | 0.00 | 0.00 | 0.00 | 10 | 1010.0 |
| 20260509223743 | 40 | 243 | 9.7 | 19.3 | 0.00 | 0.00 | 0.00 | 11 | 1010.0 |
| 20260509223240 | 40 | 240 | 11.3 | 22.5 | 0.00 | 0.00 | 0.00 | 10 | 1010.2 |
| 20260509222737 | 40 | 260 | 14.5 | 22.5 | 0.00 | 0.00 | 0.00 | 11 | 1010.2 |
| 20260509222232 | 40 | 315 | 11.3 | 17.7 | 0.00 | 0.00 | 0.00 | 11 | 1010.1 |
| 20260509221728 | 40 | 311 | 8.0 | 9.7 | 0.00 | 0.00 | 0.00 | 10 | 1010.2 |
| 20260509221224 | 41 | 226 | 4.8 | 16.1 | 0.00 | 0.00 | 0.00 | 10 | 1010.4 |
| 20260509220720 | 40 | 226 | 9.7 | 24.1 | 0.00 | 0.00 | 0.00 | 10 | 1010.5 |
| 20260509220217 | 41 | 188 | 1.6 | 16.1 | 0.00 | 0.00 | 0.00 | 10 | 1010.4 |
| 20260509215713 | 41 | 202 | 4.8 | 11.3 | 0.00 | 0.00 | 0.00 | 10 | 1010.7 |
| 20260509215209 | 40 | 113 | 4.8 | 11.3 | 0.00 | 0.00 | 0.00 | 9 | 1010.5 |
| 20260509214707 | 40 | 5 | 1.6 | 6.4 | 0.00 | 0.00 | 0.00 | 10 | 1010.7 |
| 20260509214204 | 40 | 133 | 6.4 | 8.0 | 0.00 | 0.00 | 0.00 | 9 | 1010.8 |
| 20260509213701 | 40 | 127 | 9.7 | 11.3 | 0.00 | 0.00 | 0.00 | 9 | 1010.8 |
| 20260509213156 | 40 | 149 | 3.2 | 8.0 | 0.00 | 0.00 | 0.00 | 9 | 1010.9 |
| 20260509212653 | 40 | 107 | 4.8 | 9.7 | 0.00 | 0.00 | 0.00 | 9 | 1011.0 |
| 20260509212151 | 40 | 74 | 3.2 | 8.0 | 0.00 | 0.00 | 0.00 | 9 | 1011.0 |
| 20260509211646 | 40 | 88 | 3.2 | 11.3 | 0.00 | 0.00 | 0.00 | 9 | 1011.1 |
| 20260509211143 | 40 | 44 | 3.2 | 6.4 | 0.00 | 0.00 | 0.00 | 9 | 1011.3 |
| 20260509210640 | 40 | 126 | 4.8 | 9.7 | 0.00 | 0.00 | 0.00 | 8 | 1011.4 |
| 20260509210137 | 40 | 40 | 3.2 | 8.0 | 0.00 | 0.00 | 0.00 | 8 | 1011.4 |
| 20260509205632 | 39 | 56 | 3.2 | 9.7 | 0.00 | 0.00 | 0.00 | 9 | 1011.4 |
| 20260509205127 | 40 | 89 | 4.8 | 12.9 | 0.00 | 0.00 | 0.00 | 8 | 1011.5 |
| 20260509204623 | 40 | 112 | 3.2 | 8.0 | 0.00 | 0.00 | 0.00 | 8 | 1011.5 |
| 20260509204120 | 39 | 299 | 3.2 | 4.8 | 0.00 | 0.00 | 0.00 | 8 | 1011.7 |
| 20260509203615 | 38 | 123 | 3.2 | 14.5 | 0.00 | 0.00 | 0.00 | 8 | 1011.7 |
| 20260509203109 | 40 | 182 | 1.6 | 6.4 | 0.00 | 0.00 | 0.00 | 8 | 1011.8 |
| 20260509202608 | 39 | 125 | 1.6 | 11.3 | 0.00 | 0.00 | 0.00 | 8 | 1012.2 |
| 20260509202104 | 38 | 118 | 6.4 | 8.0 | 0.00 | 0.00 | 0.00 | 8 | 1012.1 |
| 20260509201604 | 39 | 105 | 6.4 | 6.4 | 0.00 | 0.00 | 0.00 | 8 | 1012.2 |
| 20260509201103 | 39 | 132 | 8.0 | 8.0 | 0.00 | 0.00 | 0.00 | 8 | 1012.2 |
| 20260509200602 | 38 | 323 | 0.0 | 6.4 | 0.00 | 0.00 | 0.00 | 9 | 1012.2 |
| 20260509200053 | 37 | 238 | 4.8 | 6.4 | 0.00 | 0.00 | 0.00 | 9 | 1012.4 |